When you browse on this site, cookies collect data to enhance your experience and personalize the content and advertising you see.
Visit our Privacy Policy to learn more. By continuing to use the site, you agree to this use of cookies and data.
  • In Hungary
  • List of Countries
  • For 7 days
  • Water Temperature
  • Satellite Maps
  • Weather Map
  • News
  • Weather Widgets
  • user-avatar
    Login

    Hourly Weather Mineiros

    Today, 25 March, Monday

    Time Temperature Precipitation Wind Pressure Humidity
    00:00 +21°C° 0 mm 2 mps 693 mmHg 97%
    01:00 +21°C° 0 mm 2 mps 693 mmHg 98%
    02:00 +21°C° 0 mm 2 mps 692 mmHg 98%
    03:00 +21°C° 0 mm 2 mps 692 mmHg 98%
    04:00 +20°C° 0 mm 2 mps 692 mmHg 98%
    05:00 +20°C° 0 mm 2 mps 692 mmHg 99%
    06:00 +23°C° 0 mm 2 mps 693 mmHg 95%
    07:00 +24°C° 0 mm 2 mps 693 mmHg 91%
    08:00 +25°C° 0 mm 3 mps 693 mmHg 87%
    09:00 +26°C° 0 mm 3 mps 694 mmHg 80%
    10:00 +28°C° 0 mm 3 mps 694 mmHg 72%
    11:00 +30°C° 0 mm 3 mps 694 mmHg 65%
    12:00 +30°C° 0.2 mm 3 mps 693 mmHg 65%
    13:00 +30°C° 0.2 mm 3 mps 693 mmHg 66%
    14:00 +30°C° 0.2 mm 3 mps 692 mmHg 66%
    15:00 +29°C° 0.4 mm 3 mps 692 mmHg 71%
    16:00 +28°C° 0.4 mm 3 mps 691 mmHg 76%
    17:00 +27°C° 0.4 mm 3 mps 691 mmHg 81%
    18:00 +26°C° 0 mm 3 mps 691 mmHg 85%
    19:00 +25°C° 0 mm 3 mps 691 mmHg 90%
    20:00 +24°C° 0 mm 3 mps 692 mmHg 94%
    21:00 +22°C° 0 mm 3 mps 692 mmHg 95%
    22:00 +22°C° 0 mm 3 mps 692 mmHg 96%
    23:00 +23°C° 0 mm 2 mps 692 mmHg 96%

    Tomorrow, 26 March, Tuesday

    Time Temperature Precipitation Wind Pressure Humidity
    00:00 +21°C° 0 mm 2 mps 692 mmHg 97%
    01:00 +21°C° 0 mm 2 mps 692 mmHg 97%
    02:00 +21°C° 0 mm 2 mps 691 mmHg 97%
    03:00 +21°C° 0 mm 2 mps 692 mmHg 97%
    04:00 +21°C° 0 mm 2 mps 692 mmHg 97%
    05:00 +20°C° 0 mm 2 mps 692 mmHg 97%
    06:00 +22°C° 0 mm 3 mps 692 mmHg 92%
    07:00 +23°C° 0 mm 4 mps 693 mmHg 88%
    08:00 +26°C° 0 mm 4 mps 694 mmHg 83%
    09:00 +27°C° 0 mm 4 mps 694 mmHg 77%
    10:00 +29°C° 0 mm 4 mps 694 mmHg 71%
    11:00 +30°C° 0 mm 4 mps 694 mmHg 66%
    12:00 +30°C° 0.1 mm 4 mps 694 mmHg 64%
    13:00 +32°C° 0.1 mm 4 mps 693 mmHg 63%
    14:00 +32°C° 0.1 mm 4 mps 692 mmHg 62%
    15:00 +30°C° 0 mm 3 mps 692 mmHg 67%
    16:00 +29°C° 0 mm 3 mps 691 mmHg 72%
    17:00 +28°C° 0 mm 3 mps 691 mmHg 78%
    18:00 +27°C° 0 mm 3 mps 691 mmHg 82%
    19:00 +25°C° 0 mm 3 mps 692 mmHg 87%
    20:00 +24°C° 0 mm 3 mps 692 mmHg 91%
    21:00 +22°C° 0 mm 3 mps 693 mmHg 93%
    22:00 +22°C° 0 mm 3 mps 693 mmHg 94%
    23:00 +22°C° 0 mm 3 mps 693 mmHg 95%

    Day after tomorrow, 27 March, Wednesday

    Time Temperature Precipitation Wind Pressure Humidity
    00:00 +21°C° 0 mm 3 mps 693 mmHg 96%
    01:00 +21°C° 0 mm 3 mps 693 mmHg 96%
    02:00 +21°C° 0 mm 3 mps 692 mmHg 97%
    03:00 +21°C° 0 mm 3 mps 692 mmHg 97%
    04:00 +21°C° 0 mm 3 mps 692 mmHg 97%
    05:00 +21°C° 0 mm 3 mps 692 mmHg 97%
    06:00 +22°C° 0 mm 3 mps 693 mmHg 92%
    07:00 +23°C° 0 mm 4 mps 694 mmHg 86%
    08:00 +26°C° 0 mm 5 mps 695 mmHg 81%
    09:00 +27°C° 0.1 mm 5 mps 695 mmHg 76%
    10:00 +28°C° 0.1 mm 4 mps 695 mmHg 71%
    11:00 +30°C° 0.1 mm 4 mps 695 mmHg 66%
    12:00 +30°C° 0.4 mm 4 mps 694 mmHg 66%
    13:00 +30°C° 0.4 mm 4 mps 694 mmHg 66%
    14:00 +30°C° 0.4 mm 4 mps 693 mmHg 66%
    15:00 +29°C° 0.6 mm 4 mps 693 mmHg 72%
    16:00 +27°C° 0.6 mm 4 mps 693 mmHg 77%
    17:00 +26°C° 0.6 mm 4 mps 693 mmHg 83%
    18:00 +25°C° 0.2 mm 3 mps 693 mmHg 86%
    19:00 +24°C° 0.2 mm 3 mps 694 mmHg 89%
    20:00 +22°C° 0.2 mm 3 mps 694 mmHg 92%
    21:00 +22°C° 0.1 mm 3 mps 694 mmHg 93%
    22:00 +23°C° 0.1 mm 2 mps 694 mmHg 93%
    23:00 +21°C° 0.1 mm 2 mps 695 mmHg 94%

    28 March, Thursday

    Time Temperature Precipitation Wind Pressure Humidity
    00:00 +21°C° 0 mm 2 mps 694 mmHg 94%
    01:00 +21°C° 0 mm 2 mps 694 mmHg 94%
    02:00 +21°C° 0 mm 2 mps 693 mmHg 94%
    03:00 +20°C° 0 mm 2 mps 693 mmHg 95%
    04:00 +20°C° 0 mm 2 mps 693 mmHg 95%
    05:00 +20°C° 0 mm 2 mps 694 mmHg 96%
    06:00 +21°C° 0 mm 2 mps 694 mmHg 93%
    07:00 +22°C° 0 mm 3 mps 695 mmHg 89%
    08:00 +24°C° 0 mm 3 mps 696 mmHg 86%
    09:00 +23°C° 0.6 mm 4 mps 696 mmHg 87%
    10:00 +23°C° 0.6 mm 4 mps 696 mmHg 88%
    11:00 +23°C° 0.6 mm 4 mps 696 mmHg 89%
    12:00 +25°C° 0.3 mm 4 mps 695 mmHg 85%
    13:00 +26°C° 0.3 mm 4 mps 695 mmHg 81%
    14:00 +27°C° 0.3 mm 4 mps 694 mmHg 77%
    15:00 +26°C° 0.9 mm 3 mps 694 mmHg 80%
    16:00 +26°C° 0.9 mm 3 mps 694 mmHg 84%
    17:00 +25°C° 0.9 mm 2 mps 694 mmHg 88%
    18:00 +24°C° 0.3 mm 2 mps 694 mmHg 90%
    19:00 +23°C° 0.3 mm 2 mps 695 mmHg 92%
    20:00 +21°C° 0.3 mm 2 mps 695 mmHg 95%
    21:00 +21°C° 0 mm 2 mps 695 mmHg 95%
    22:00 +21°C° 0 mm 2 mps 695 mmHg 96%
    23:00 +20°C° 0 mm 2 mps 695 mmHg 97%

    29 March, Friday

    Time Temperature Precipitation Wind Pressure Humidity
    00:00 +20°C° 0 mm 2 mps 695 mmHg 96%
    01:00 +20°C° 0 mm 2 mps 694 mmHg 96%
    02:00 +20°C° 0 mm 2 mps 694 mmHg 96%
    03:00 +19°C° 0 mm 2 mps 694 mmHg 96%
    04:00 +19°C° 0 mm 2 mps 694 mmHg 96%
    05:00 +19°C° 0 mm 2 mps 694 mmHg 95%
    06:00 +20°C° 0 mm 3 mps 695 mmHg 90%
    07:00 +22°C° 0 mm 4 mps 696 mmHg 84%
    08:00 +23°C° 0 mm 4 mps 696 mmHg 79%
    09:00 +26°C° 0 mm 4 mps 696 mmHg 74%
    10:00 +27°C° 0 mm 4 mps 696 mmHg 69%
    11:00 +29°C° 0 mm 4 mps 696 mmHg 64%
    12:00 +29°C° 0.1 mm 3 mps 695 mmHg 64%
    13:00 +29°C° 0.1 mm 3 mps 694 mmHg 65%
    14:00 +29°C° 0.1 mm 2 mps 693 mmHg 66%
    15:00 +28°C° 0.6 mm 2 mps 693 mmHg 71%
    16:00 +27°C° 0.6 mm 2 mps 693 mmHg 76%
    17:00 +26°C° 0.6 mm 3 mps 693 mmHg 81%
    18:00 +25°C° 0.3 mm 2 mps 693 mmHg 85%
    19:00 +24°C° 0.3 mm 2 mps 693 mmHg 89%
    20:00 +23°C° 0.3 mm 2 mps 694 mmHg 93%
    21:00 +21°C° 0.1 mm 2 mps 694 mmHg 94%
    22:00 +21°C° 0.1 mm 2 mps 694 mmHg 95%
    23:00 +21°C° 0.1 mm 2 mps 694 mmHg 96%

    30 March, Saturday

    Time Temperature Precipitation Wind Pressure Humidity
    00:00 +21°C° 0 mm 2 mps 694 mmHg 96%
    01:00 +20°C° 0 mm 2 mps 693 mmHg 96%
    02:00 +20°C° 0 mm 2 mps 693 mmHg 96%
    03:00 +20°C° 0 mm 2 mps 693 mmHg 96%
    04:00 +20°C° 0 mm 2 mps 693 mmHg 96%
    05:00 +20°C° 0 mm 2 mps 694 mmHg 96%
    06:00 +21°C° 0 mm 3 mps 694 mmHg 90%
    07:00 +24°C° 0 mm 3 mps 695 mmHg 85%
    08:00 +25°C° 0 mm 4 mps 696 mmHg 80%
    09:00 +26°C° 0.1 mm 4 mps 696 mmHg 75%
    10:00 +28°C° 0.1 mm 4 mps 696 mmHg 71%
    11:00 +29°C° 0.1 mm 4 mps 695 mmHg 66%
    12:00 +29°C° 0.6 mm 3 mps 695 mmHg 65%
    13:00 +30°C° 0.6 mm 3 mps 694 mmHg 65%
    14:00 +30°C° 0.6 mm 2 mps 693 mmHg 64%
    15:00 +29°C° 1 mm 2 mps 693 mmHg 71%
    16:00 +28°C° 1 mm 2 mps 693 mmHg 77%
    17:00 +26°C° 1 mm 1 mps 693 mmHg 84%
    18:00 +25°C° 0.3 mm 1 mps 693 mmHg 87%
    19:00 +24°C° 0.3 mm 2 mps 693 mmHg 89%
    20:00 +23°C° 0.3 mm 2 mps 693 mmHg 92%
    21:00 +23°C° 0.1 mm 2 mps 693 mmHg 93%
    22:00 +21°C° 0.1 mm 2 mps 693 mmHg 93%
    23:00 +21°C° 0.1 mm 2 mps 693 mmHg 94%
    Show more